UAL132 PTPN-PTKK

Flight info

Callsign UAL132
Flight time N/A
Altitude 38000
Route BIRUQ R584 MICNO
Aircraft B738/M-SDE2E3FGHIRWXY/LB1

Departure

Time N/A
Airport Pohnpei International Airport (PTPN)

Arrival

Time 2026-04-23 22:32
Airport Chuuk International Airport (PTKK)
Time Latitude Longitude Altitude Speed Heading
2026-04-23 21:42 7.09070 156.85500 33579 ft 455 kts 273°
2026-04-23 21:42 7.09321 156.82321 33991 ft 455 kts 273°
2026-04-23 21:43 7.09571 156.79143 34290 ft 456 kts 272°
2026-04-23 21:43 7.09821 156.75958 34657 ft 455 kts 273°
2026-04-23 21:43 7.10071 156.72791 35105 ft 452 kts 273°
2026-04-23 21:43 7.10318 156.69652 35553 ft 449 kts 272°
2026-04-23 21:44 7.10565 156.66518 35903 ft 448 kts 272°
2026-04-23 21:44 7.10811 156.63388 36236 ft 448 kts 272°
2026-04-23 21:44 7.11056 156.60266 36620 ft 446 kts 273°
2026-04-23 21:44 7.11300 156.57159 37032 ft 444 kts 273°
2026-04-23 21:45 7.11543 156.54068 37417 ft 442 kts 273°
2026-04-23 21:45 7.11783 156.50987 37725 ft 442 kts 272°
2026-04-23 21:45 7.12024 156.47903 37949 ft 441 kts 273°
2026-04-23 21:46 7.12507 156.41751 37936 ft 440 kts 273°
2026-04-23 21:46 7.12986 156.35605 37938 ft 440 kts 272°
2026-04-23 21:47 7.13464 156.29454 37946 ft 441 kts 273°
2026-04-23 21:47 7.13939 156.23337 37943 ft 442 kts 272°
2026-04-23 21:48 7.14418 156.17157 37929 ft 444 kts 272°
2026-04-23 21:48 7.14899 156.10949 37943 ft 449 kts 272°
2026-04-23 21:49 7.15388 156.04630 37949 ft 456 kts 273°
2026-04-23 21:49 7.15881 155.98236 37945 ft 461 kts 273°
2026-04-23 21:50 7.16377 155.91800 37921 ft 459 kts 272°
2026-04-23 21:50 7.16787 155.86515 37925 ft 453 kts 273°
2026-04-23 21:51 7.17271 155.80220 37931 ft 450 kts 273°
2026-04-23 21:51 7.17750 155.73950 37940 ft 449 kts 272°
2026-04-23 21:52 7.18231 155.67662 37946 ft 454 kts 272°
2026-04-23 21:52 7.18721 155.61268 37945 ft 461 kts 272°
2026-04-23 21:53 7.19215 155.54843 37934 ft 457 kts 274°
2026-04-23 21:53 7.19698 155.48510 37935 ft 451 kts 273°
2026-04-23 21:54 7.20177 155.42196 37944 ft 453 kts 274°
2026-04-23 21:54 7.20656 155.35867 37941 ft 454 kts 273°
2026-04-23 21:55 7.21213 155.28503 37945 ft 454 kts 274°
2026-04-23 21:55 7.21615 155.23182 37943 ft 455 kts 273°
2026-04-23 21:56 7.22094 155.16824 37949 ft 455 kts 274°
2026-04-23 21:56 7.22571 155.10503 37945 ft 456 kts 273°
2026-04-23 21:57 7.23052 155.04096 37942 ft 456 kts 274°
2026-04-23 21:57 7.23527 154.97776 37946 ft 455 kts 273°
2026-04-23 21:58 7.24003 154.91417 37936 ft 455 kts 273°
2026-04-23 21:58 7.24478 154.85064 37941 ft 454 kts 274°
2026-04-23 21:59 7.24951 154.78721 37937 ft 454 kts 273°
2026-04-23 21:59 7.25424 154.72382 37943 ft 453 kts 273°
2026-04-23 22:00 7.26128 154.62892 37939 ft 453 kts 273°
2026-04-23 22:00 7.26598 154.56571 37945 ft 452 kts 274°
2026-04-23 22:01 7.27065 154.50258 37939 ft 452 kts 273°
2026-04-23 22:01 7.27532 154.43941 37942 ft 452 kts 272°
2026-04-23 22:02 7.27997 154.37628 37937 ft 452 kts 274°
2026-04-23 22:02 7.28460 154.31314 37937 ft 452 kts 274°
2026-04-23 22:03 7.28927 154.24992 37945 ft 453 kts 273°
2026-04-23 22:03 7.29391 154.18650 37935 ft 455 kts 272°
2026-04-23 22:04 7.29856 154.12287 37942 ft 456 kts 273°
2026-04-23 22:04 7.30320 154.05914 37936 ft 457 kts 273°
2026-04-23 22:05 7.30785 153.99524 37943 ft 458 kts 272°
2026-04-23 22:05 7.31249 153.93123 37937 ft 458 kts 272°
2026-04-23 22:06 7.31711 153.86762 37944 ft 458 kts 272°
2026-04-23 22:06 7.32177 153.80356 37939 ft 459 kts 272°
2026-04-23 22:07 7.32641 153.73954 37933 ft 458 kts 272°
2026-04-23 22:07 7.32874 153.70739 37477 ft 462 kts 273°
2026-04-23 22:07 7.33106 153.67520 36969 ft 459 kts 273°
2026-04-23 22:08 7.33336 153.64317 36420 ft 458 kts 273°
2026-04-23 22:08 7.33564 153.61123 35845 ft 457 kts 272°
2026-04-23 22:08 7.33793 153.57923 35218 ft 459 kts 272°
2026-04-23 22:08 7.34023 153.54712 34547 ft 461 kts 273°
2026-04-23 22:09 7.34256 153.51484 33870 ft 463 kts 273°
2026-04-23 22:09 7.34487 153.48242 33105 ft 465 kts 272°
2026-04-23 22:09 7.34720 153.44988 32381 ft 466 kts 273°
2026-04-23 22:09 7.34953 153.41730 31649 ft 467 kts 273°
2026-04-23 22:10 7.35186 153.38477 31055 ft 464 kts 273°
2026-04-23 22:10 7.35417 153.35250 30527 ft 460 kts 274°
2026-04-23 22:10 7.35646 153.32049 30004 ft 456 kts 274°
2026-04-23 22:10 7.35872 153.28880 29388 ft 452 kts 274°
2026-04-23 22:11 7.36096 153.25740 28820 ft 447 kts 274°
2026-04-23 22:11 7.36317 153.22636 28270 ft 442 kts 274°
2026-04-23 22:11 7.36535 153.19560 27737 ft 438 kts 274°
2026-04-23 22:11 7.36751 153.16512 27212 ft 434 kts 274°
2026-04-23 22:12 7.36965 153.13495 26692 ft 430 kts 274°
2026-04-23 22:12 7.37178 153.10498 26184 ft 427 kts 274°
2026-04-23 22:12 7.37388 153.07524 25660 ft 425 kts 274°
2026-04-23 22:12 7.37597 153.04562 25128 ft 423 kts 274°
2026-04-23 22:13 7.37806 153.01610 24609 ft 421 kts 274°
2026-04-23 22:13 7.38013 152.98672 24088 ft 421 kts 274°
2026-04-23 22:13 7.38220 152.95736 23572 ft 420 kts 274°
2026-04-23 22:13 7.38426 152.92807 22960 ft 419 kts 274°
2026-04-23 22:14 7.38632 152.89890 22419 ft 416 kts 274°
2026-04-23 22:14 7.38835 152.86991 21900 ft 414 kts 274°
2026-04-23 22:14 7.39038 152.84114 21388 ft 411 kts 274°
2026-04-23 22:14 7.39238 152.81251 20886 ft 408 kts 274°
2026-04-23 22:15 7.39438 152.78408 20376 ft 406 kts 274°
2026-04-23 22:15 7.39636 152.75582 19855 ft 404 kts 274°
2026-04-23 22:15 7.39833 152.72762 19347 ft 402 kts 274°
2026-04-23 22:15 7.40029 152.69959 18845 ft 401 kts 274°
2026-04-23 22:16 7.40222 152.67202 18347 ft 399 kts 274°
2026-04-23 22:16 7.40416 152.64418 17779 ft 398 kts 274°
2026-04-23 22:16 7.40609 152.61651 17269 ft 395 kts 274°
2026-04-23 22:16 7.40800 152.58903 16769 ft 391 kts 274°
2026-04-23 22:17 7.40990 152.56180 16279 ft 388 kts 274°
2026-04-23 22:17 7.41178 152.53475 15778 ft 386 kts 274°
2026-04-23 22:17 7.41365 152.50786 15284 ft 384 kts 274°
2026-04-23 22:17 7.41551 152.48110 14787 ft 382 kts 275°
2026-04-23 22:18 7.41736 152.45444 14295 ft 381 kts 275°
2026-04-23 22:18 7.41920 152.42788 13803 ft 379 kts 275°
2026-04-23 22:18 7.42103 152.40141 13265 ft 378 kts 275°
2026-04-23 22:18 7.42285 152.37512 12777 ft 375 kts 275°
2026-04-23 22:19 7.42426 152.34904 12274 ft 372 kts 269°
2026-04-23 22:19 7.41927 152.32356 11693 ft 372 kts 250°
2026-04-23 22:19 7.41055 152.29908 11168 ft 371 kts 249°
2026-04-23 22:19 7.40185 152.27462 10665 ft 370 kts 250°
2026-04-23 22:20 7.39331 152.25034 10382 ft 362 kts 250°
2026-04-23 22:20 7.38511 152.22680 10186 ft 351 kts 250°
2026-04-23 22:20 7.37721 152.20392 10037 ft 340 kts 250°
2026-04-23 22:20 7.36959 152.18174 9885 ft 331 kts 250°
2026-04-23 22:21 7.36226 152.16034 9871 ft 316 kts 250°
2026-04-23 22:21 7.35497 152.13906 9209 ft 326 kts 250°
2026-04-23 22:21 7.34755 152.11737 8760 ft 329 kts 250°
2026-04-23 22:21 7.34008 152.09555 8352 ft 329 kts 250°
2026-04-23 22:22 7.33267 152.07386 7997 ft 326 kts 250°
2026-04-23 22:22 7.32530 152.05232 7655 ft 324 kts 250°
2026-04-23 22:22 7.31799 152.03096 7299 ft 322 kts 250°
2026-04-23 22:22 7.31072 152.00971 6934 ft 321 kts 251°
2026-04-23 22:23 7.30346 151.98851 6577 ft 320 kts 251°
2026-04-23 22:23 7.29620 151.96731 6185 ft 320 kts 251°
2026-04-23 22:23 7.28898 151.94619 5824 ft 318 kts 251°
2026-04-23 22:23 7.28178 151.92517 5475 ft 316 kts 251°
2026-04-23 22:24 7.27464 151.90430 5125 ft 314 kts 251°
2026-04-23 22:24 7.26764 151.88386 4812 ft 312 kts 251°
2026-04-23 22:24 7.26060 151.86331 4488 ft 308 kts 251°
2026-04-23 22:24 7.25374 151.84331 4164 ft 297 kts 251°
2026-04-23 22:25 7.24846 151.82373 3919 ft 283 kts 268°
2026-04-23 22:25 7.25143 151.80498 3850 ft 265 kts 295°
2026-04-23 22:25 7.26043 151.78932 3745 ft 255 kts 315°
2026-04-23 22:25 7.27258 151.77706 3673 ft 237 kts 321°
2026-04-23 22:26 7.28404 151.76608 3566 ft 217 kts 321°
2026-04-23 22:26 7.29451 151.75602 3473 ft 201 kts 321°
2026-04-23 22:26 7.30427 151.74662 3415 ft 187 kts 322°
2026-04-23 22:26 7.31349 151.73774 3408 ft 185 kts 322°
2026-04-23 22:27 7.32300 151.72864 3327 ft 193 kts 322°
2026-04-23 22:27 7.33429 151.72233 3092 ft 180 kts 358°
2026-04-23 22:27 7.34583 151.72448 2936 ft 165 kts 32°
2026-04-23 22:27 7.35453 151.73192 2778 ft 166 kts 48°
2026-04-23 22:28 7.36260 151.74016 2596 ft 164 kts 47°
2026-04-23 22:28 7.37035 151.74813 2421 ft 154 kts 48°
2026-04-23 22:28 7.37768 151.75570 2254 ft 147 kts 47°
2026-04-23 22:28 7.38442 151.76265 2064 ft 130 kts 47°
2026-04-23 22:29 7.39062 151.76905 1864 ft 126 kts 49°
2026-04-23 22:29 7.39654 151.77519 1681 ft 118 kts 49°
2026-04-23 22:29 7.40232 151.78119 1543 ft 122 kts 50°
2026-04-23 22:29 7.40827 151.78738 1390 ft 123 kts 49°
2026-04-23 22:30 7.41428 151.79361 1219 ft 124 kts 49°
2026-04-23 22:30 7.42012 151.79967 1053 ft 119 kts 46°
2026-04-23 22:30 7.42586 151.80562 912 ft 118 kts 46°
2026-04-23 22:30 7.43174 151.81174 786 ft 123 kts 47°
2026-04-23 22:31 7.43757 151.81772 710 ft 116 kts 47°
2026-04-23 22:31 7.44355 151.82363 477 ft 124 kts 47°
2026-04-23 22:31 7.44970 151.83004 237 ft 131 kts 47°
2026-04-23 22:31 7.45578 151.83649 65 ft 124 kts 47°
2026-04-23 22:32 7.46113 151.84213 17 ft 84 kts 46°
2026-04-23 22:32 7.46397 151.84505 17 ft 51 kts 46°
2026-04-23 22:32 7.46543 151.84660 17 ft 14 kts 46°
2026-04-23 22:32 7.46609 151.84727 19 ft 13 kts 45°
2026-04-23 22:33 7.46672 151.84792 19 ft 13 kts 46°
2026-04-23 22:33 7.46747 151.84833 19 ft 12 kts
2026-04-23 22:33 7.46753 151.84875 19 ft 9 kts 196°
2026-04-23 22:33 7.46703 151.84825 21 ft 15 kts 225°
2026-04-23 22:34 7.46620 151.84740 18 ft 19 kts 225°
2026-04-23 22:34 7.46514 151.84632 17 ft 23 kts 225°
2026-04-23 22:34 7.46403 151.84517 17 ft 23 kts 226°
2026-04-23 22:34 7.46298 151.84408 18 ft 21 kts 225°
2026-04-23 22:35 7.46197 151.84304 17 ft 20 kts 225°
2026-04-23 22:35 7.46100 151.84203 19 ft 20 kts 227°
2026-04-23 22:35 7.46007 151.84104 18 ft 19 kts 226°
2026-04-23 22:35 7.45901 151.84040 19 ft 19 kts 162°
2026-04-23 22:36 7.45854 151.84097 19 ft 8 kts 94°
2026-04-23 22:36 7.45857 151.84153 18 ft 8 kts 131°
2026-04-23 22:36 7.45832 151.84145 18 ft 2 kts 229°
2026-04-23 22:36 7.45830 151.84142 18 ft 0 kts 227°